Regional Weather Roundup
Issued by NWS

Home | Current Version | Previous Version | Text Only | Print | Product List | Glossary On
Versions: 1 2 3 4 5 6 7 8 9 10 11 12 13 14 15 16 17 18 19 20 21 22 23 24 25 26 27 28 29 30 31 32 33 34 35 36 37 38 39 40 41 42 43 44 45 46 47 48 49 50
000
ASUS43 KMKX 250300
RWRWI

WISCONSIN REGIONAL WEATHER ROUNDUP
NATIONAL WEATHER SERVICE MILWAUKEE/SULLIVAN WI
1000 PM CDT TUE APR 24 2018

NOTE: "FAIR" INDICATES FEW OR NO CLOUDS BELOW 12,000 FEET WITH NO
SIGNIFICANT WEATHER AND/OR OBSTRUCTIONS TO VISIBILITY.

WIZ001-002-006>008-014>016-023>028-250400-
NORTHWEST WISCONSIN

CITY           SKY/WX    TMP DP  RH WIND       PRES   REMARKS
SUPERIOR ARPT  FAIR      42  25  50 N8        30.26R
ASHLAND        FAIR      39  28  64 N9        30.25R WCI  33
HAYWARD        FAIR      46  27  47 N7        30.21R
SIREN          FAIR      47  25  41 N8        30.22R
CUMBERLAND     FAIR      39  32  75 N3        30.19S
RICE LAKE      FAIR      39  34  82 CALM      30.21R
CHETEK         FAIR      38  33  81 CALM      30.19S
LADYSMITH      FAIR      37  32  84 CALM      30.21R
EAU CLAIRE     NOT AVBL
MENOMONIE      FAIR      46  35  63 CALM      30.20R
NEW RICHMOND   FAIR      45  30  56 NW6       30.20R
OSCEOLA        FAIR      48  29  48 N5        30.23R
$$

WIZ003>005-009-010-017-018-250400-
NORTH CENTRAL WISCONSIN

CITY           SKY/WX    TMP DP  RH WIND       PRES   REMARKS
MANITOWISH WTR FOG       31  31 100 CALM      30.18R VSB 1/4
ARBOR VITAE    FOG       37  35  95 CALM      30.19R VSB 1/4
WOODRUFF       FOG       37  35  95 CALM      30.19R VSB 1/4
RHINELANDER    FAIR      37  36  96 CALM      30.18R
EAGLE RIVER    FOG       32  32 100 CALM      30.18R VSB 1/4
LAND O LAKES   FAIR      30  30  99 CALM      30.19S
PHILLIPS       FAIR      32  32 100 CALM      30.19R
TOMAHAWK       FAIR      34  32  92 CALM      30.19R
MEDFORD        FAIR      38  35  89 N3        30.17R
MERRILL        CLOUDY    40  40  99 CALM      30.18R
$$

WIZ029-030-035-036-043>047-250400-
CENTRAL WISCONSIN

CITY           SKY/WX    TMP DP  RH WIND       PRES   REMARKS
WAUSAU         LGT RAIN  43  40  89 VRB5      30.14R
MOSINEE        CLOUDY    43  39  87 N9        30.15R
MARSHFIELD     CLOUDY    45  37  73 N14       30.15R
STEVENS POINT  LGT RAIN  45  32  61 N15G21    30.14R
WAUPACA        CLOUDY    53  31  43 NE7       30.13R
WAUTOMA        NOT AVBL
WISC RAPIDS    LGT RAIN  50  29  44 NE13      30.15R
CAMP DOUGLAS   NOT AVBL
$$

WIZ011>013-019>022-031-037>040-048>050-250400-
NORTHEAST WISCONSIN

CITY           SKY/WX    TMP DP  RH WIND       PRES   REMARKS
ANTIGO         LGT RAIN  39  38  97 NE10      30.17R WCI  32
SHAWANO        CLOUDY    46  33  61 NE7       30.13R
OCONTO         CLOUDY    48  28  46 N6        30.13R
STURGEON BAY   CLOUDY    45  29  53 N14       30.14R
GREEN BAY      CLOUDY    44  31  60 NE18      30.13R
MANITOWOC      FAIR      47  31  53 N16       30.10R
APPLETON       CLOUDY    48  25  40 NE15G26   30.11R
CLINTONVILLE   CLOUDY    50  32  49 NE6       30.13R
OSHKOSH        CLOUDY    49  39  68 N12       30.10R
$$

WIZ032>034-041-042-053>061-250400-
SOUTHWEST WISCONSIN

CITY           SKY/WX    TMP DP  RH WIND       PRES   REMARKS
LA CROSSE      FAIR      54  35  48 N16G30    30.16R
SPARTA         CLOUDY    53  33  47 N9G17     30.15R
VIROQUA        FAIR      52  35  51 N14G26    30.12R
BOSCOBEL       CLOUDY    63  36  36 N17G26    30.08R
PRAIRIE DU CHI FAIR      63  32  32 NW15      30.06R
PLATTEVILLE    CLOUDY    62  40  43 N12       30.04R
$$

WIZ056-057-062-063-064-067-068-250400-
SOUTH CENTRAL WISCONSIN

CITY           SKY/WX    TMP DP  RH WIND       PRES   REMARKS
REEDSBURG      CLOUDY    57  35  43 N20G26    30.08R
BARABOO/DELLS  CLOUDY    60  32  34 N14       30.06R
LONE ROCK      NOT AVBL
MINERAL POINT  FAIR      63  36  36 N9        30.04R
MADISON        CLOUDY    55  35  47 NE3       30.03R
MIDDLETON      MOCLDY    57  38  49 CALM      30.03S
WATERTOWN      CLOUDY    54  49  82 NE6       30.03R
MONROE         CLOUDY    61  28  29 N3        30.01R
JANESVILLE     CLOUDY    55  41  58 SE3       30.01S
$$

WIZ051-052-058>065-066-070>072-250400-
SOUTHEAST WISCONSIN

CITY           SKY/WX    TMP DP  RH WIND       PRES   REMARKS
MILWAUKEE      FAIR      45  41  86 N12       30.05R
WAUKESHA       CLOUDY    46  45  93 NE8       30.06R
MILWAUKEE/TIMM FAIR      45  37  76 NE10G16   30.07R
RACINE         FAIR      43  42  97 N12       30.05F
BURLINGTON     FAIR      50  45  84 E6        30.03S
KENOSHA        FAIR      48  44  86 NE8       30.03S
FOND DU LAC    MOCLDY    50  31  48 NE14      30.09R
SHEBOYGAN      FAIR      46  33  60 NE22G29   30.08R
WEST BEND      MOCLDY    46  32  57 NE10      30.07R
JUNEAU         MOCLDY    54  47  78 NE15      30.06R
$$

LSZ147-162-250400-
LAKE SUPERIOR

STATION/POSITION TIME  TEMP    WIND        PRES    WAVE
                       AIR SEA DIR/SP/G            HT/PER
                 (UTC) (F)     (DEG/KT/KT) (MB)    (FT/S)
DEVILS ISLAND    0200   40      10/ 14/ 15 1024.7R
SAXON HARBOR     0240   37     340/  4/  7 1023.4R
$$

LMZ867-665-643>646-250400-
LAKE MICHIGAN

STATION/POSITION TIME  TEMP    WIND        PRES    WAVE
                       AIR SEA DIR/SP/G            HT/PER
                 (UTC) (F)     (DEG/KT/KT) (MB)    (FT/S)
NORTHPORT PIER   0240   38                 1020.3R
KEWAUNEE LAKESHO 0230   44      10/  6/ 12 1019.1R
SHEBOYGAN LAKESH 0200   42      10/ 15/ 16 1018.7R
PORT WASHINGTON  0240   49      20/ 11/ 19 1019.3R
MILWAUKEE LAKESH 0230   44      20/ 14/ 17   N/A
KENOSHA   LAKESH 0200   44                 1016.9
$$

TC  - TEMPERATURE IN CELSIUS
VSB - VISIBILITY IN STATUTE MILES
WCI - WIND CHILL INDEX
HX  - HEAT INDEX




USA.gov is the U.S. government's official web portal to all federal, state and local government web resources and services.